When you browse on this site, cookies collect data to enhance your experience and personalize the content and advertising you see.
Visit our Privacy Policy to learn more. By continuing to use the site, you agree to this use of cookies and data.

Hourly Weather Konotop

Today, 5 August, Wednesday

Time Temperature Precipitation Wind Pressure Humidity
00:00 +18°C° 0 mm 3 mps 749 mmHg 71%
01:00 +17°C° 0 mm 3 mps 750 mmHg 71%
02:00 +17°C° 0 mm 3 mps 750 mmHg 72%
03:00 +17°C° 0 mm 2 mps 750 mmHg 73%
04:00 +17°C° 0 mm 2 mps 750 mmHg 75%
05:00 +17°C° 0 mm 2 mps 750 mmHg 76%
06:00 +18°C° 0 mm 3 mps 750 mmHg 73%
07:00 +20°C° 0 mm 3 mps 751 mmHg 70%
08:00 +21°C° 0 mm 3 mps 751 mmHg 67%
09:00 +24°C° 0 mm 3 mps 751 mmHg 62%
10:00 +26°C° 0 mm 2 mps 751 mmHg 56%
11:00 +27°C° 0 mm 2 mps 751 mmHg 50%
12:00 +28°C° 0 mm 2 mps 751 mmHg 49%
13:00 +29°C° 0 mm 2 mps 751 mmHg 47%
14:00 +29°C° 0 mm 2 mps 751 mmHg 45%
15:00 +29°C° 0 mm 2 mps 751 mmHg 48%
16:00 +29°C° 0 mm 2 mps 751 mmHg 52%
17:00 +28°C° 0 mm 2 mps 751 mmHg 55%
18:00 +26°C° 0 mm 2 mps 751 mmHg 58%
19:00 +24°C° 0 mm 2 mps 751 mmHg 61%
20:00 +22°C° 0 mm 1 mps 751 mmHg 64%
21:00 +21°C° 0 mm 2 mps 751 mmHg 66%
22:00 +20°C° 0 mm 2 mps 751 mmHg 68%
23:00 +19°C° 0 mm 2 mps 752 mmHg 70%

Tomorrow, 6 August, Thursday

Time Temperature Precipitation Wind Pressure Humidity
00:00 +19°C° 0 mm 2 mps 752 mmHg 72%
01:00 +19°C° 0 mm 1 mps 752 mmHg 74%
02:00 +19°C° 0 mm 1 mps 752 mmHg 76%
03:00 +19°C° 0 mm 1 mps 752 mmHg 77%
04:00 +19°C° 0 mm 1 mps 752 mmHg 78%
05:00 +19°C° 0 mm 1 mps 752 mmHg 79%
06:00 +20°C° 0 mm 1 mps 753 mmHg 74%
07:00 +22°C° 0 mm 1 mps 753 mmHg 69%
08:00 +24°C° 0 mm 1 mps 753 mmHg 64%
09:00 +25°C° 0 mm 1 mps 753 mmHg 60%
10:00 +27°C° 0 mm 2 mps 753 mmHg 55%
11:00 +28°C° 0 mm 2 mps 753 mmHg 51%
12:00 +29°C° 0 mm 2 mps 753 mmHg 49%
13:00 +29°C° 0 mm 2 mps 753 mmHg 47%
14:00 +30°C° 0 mm 3 mps 753 mmHg 46%
15:00 +30°C° 0 mm 2 mps 753 mmHg 49%
16:00 +29°C° 0 mm 2 mps 753 mmHg 53%
17:00 +29°C° 0 mm 2 mps 753 mmHg 57%
18:00 +27°C° 0 mm 2 mps 753 mmHg 63%
19:00 +25°C° 0 mm 2 mps 753 mmHg 68%
20:00 +24°C° 0 mm 2 mps 753 mmHg 73%
21:00 +23°C° 0 mm 2 mps 753 mmHg 79%
22:00 +21°C° 0 mm 2 mps 753 mmHg 85%
23:00 +20°C° 0 mm 2 mps 753 mmHg 92%

Day after tomorrow, 7 August, Friday

Time Temperature Precipitation Wind Pressure Humidity
00:00 +20°C° 0 mm 3 mps 753 mmHg 93%
01:00 +20°C° 0 mm 3 mps 754 mmHg 95%
02:00 +19°C° 0 mm 3 mps 754 mmHg 96%
03:00 +19°C° 0 mm 3 mps 754 mmHg 96%
04:00 +18°C° 0 mm 3 mps 754 mmHg 96%
05:00 +18°C° 0 mm 4 mps 754 mmHg 96%
06:00 +19°C° 0 mm 4 mps 754 mmHg 88%
07:00 +20°C° 0 mm 4 mps 754 mmHg 81%
08:00 +22°C° 0 mm 5 mps 754 mmHg 74%
09:00 +23°C° 0 mm 5 mps 754 mmHg 67%
10:00 +24°C° 0 mm 6 mps 755 mmHg 61%
11:00 +26°C° 0 mm 6 mps 755 mmHg 54%
12:00 +26°C° 0 mm 6 mps 754 mmHg 54%
13:00 +27°C° 0 mm 6 mps 754 mmHg 54%
14:00 +27°C° 0 mm 6 mps 754 mmHg 53%
15:00 +27°C° 0 mm 5 mps 754 mmHg 56%
16:00 +26°C° 0 mm 5 mps 754 mmHg 58%
17:00 +26°C° 0 mm 5 mps 754 mmHg 61%
18:00 +23°C° 0 mm 4 mps 754 mmHg 66%
19:00 +22°C° 0 mm 4 mps 754 mmHg 71%
20:00 +20°C° 0 mm 3 mps 754 mmHg 76%
21:00 +19°C° 0 mm 3 mps 754 mmHg 78%
22:00 +18°C° 0 mm 3 mps 754 mmHg 80%
23:00 +18°C° 0 mm 3 mps 754 mmHg 82%

8 August, Saturday

Time Temperature Precipitation Wind Pressure Humidity
00:00 +17°C° 0 mm 3 mps 754 mmHg 83%
01:00 +16°C° 0 mm 3 mps 754 mmHg 84%
02:00 +16°C° 0 mm 3 mps 754 mmHg 85%
03:00 +16°C° 0 mm 3 mps 754 mmHg 86%
04:00 +14°C° 0 mm 3 mps 754 mmHg 86%
05:00 +14°C° 0 mm 3 mps 754 mmHg 87%
06:00 +17°C° 0 mm 3 mps 754 mmHg 81%
07:00 +19°C° 0 mm 4 mps 754 mmHg 75%
08:00 +21°C° 0 mm 4 mps 754 mmHg 69%
09:00 +22°C° 0 mm 4 mps 754 mmHg 64%
10:00 +23°C° 0 mm 5 mps 754 mmHg 58%
11:00 +25°C° 0 mm 5 mps 754 mmHg 53%
12:00 +26°C° 0 mm 5 mps 753 mmHg 52%
13:00 +26°C° 0 mm 5 mps 753 mmHg 51%
14:00 +27°C° 0 mm 4 mps 752 mmHg 50%
15:00 +26°C° 0 mm 4 mps 752 mmHg 53%
16:00 +26°C° 0 mm 4 mps 752 mmHg 55%
17:00 +26°C° 0 mm 4 mps 752 mmHg 58%
18:00 +24°C° 0 mm 3 mps 752 mmHg 63%
19:00 +21°C° 0 mm 3 mps 752 mmHg 69%
20:00 +19°C° 0 mm 3 mps 752 mmHg 75%
21:00 +19°C° 0 mm 3 mps 751 mmHg 76%
22:00 +18°C° 0 mm 2 mps 751 mmHg 78%
23:00 +17°C° 0 mm 2 mps 751 mmHg 79%

9 August, Sunday

Time Temperature Precipitation Wind Pressure Humidity
00:00 +17°C° 0 mm 2 mps 751 mmHg 81%
01:00 +16°C° 0 mm 2 mps 751 mmHg 82%
02:00 +16°C° 0 mm 2 mps 751 mmHg 84%
03:00 +16°C° 0 mm 2 mps 751 mmHg 85%
04:00 +15°C° 0 mm 2 mps 750 mmHg 86%
05:00 +15°C° 0 mm 2 mps 750 mmHg 87%
06:00 +17°C° 0 mm 2 mps 750 mmHg 81%
07:00 +19°C° 0 mm 2 mps 750 mmHg 74%
08:00 +21°C° 0 mm 2 mps 750 mmHg 67%
09:00 +22°C° 0 mm 3 mps 750 mmHg 61%
10:00 +24°C° 0 mm 3 mps 750 mmHg 55%
11:00 +25°C° 0 mm 3 mps 750 mmHg 50%
12:00 +26°C° 0 mm 3 mps 750 mmHg 48%
13:00 +26°C° 0 mm 3 mps 750 mmHg 46%
14:00 +26°C° 0 mm 3 mps 750 mmHg 45%
15:00 +26°C° 0 mm 3 mps 749 mmHg 47%
16:00 +26°C° 0 mm 3 mps 749 mmHg 50%
17:00 +25°C° 0 mm 3 mps 749 mmHg 53%
18:00 +24°C° 0 mm 3 mps 749 mmHg 58%
19:00 +21°C° 0 mm 3 mps 749 mmHg 63%
20:00 +19°C° 0 mm 2 mps 749 mmHg 68%
21:00 +18°C° 0 mm 2 mps 749 mmHg 70%
22:00 +18°C° 0 mm 2 mps 749 mmHg 71%
23:00 +17°C° 0 mm 2 mps 749 mmHg 73%

10 August, Monday

Time Temperature Precipitation Wind Pressure Humidity
00:00 +17°C° 0 mm 2 mps 749 mmHg 76%
01:00 +17°C° 0 mm 2 mps 749 mmHg 80%
02:00 +16°C° 0 mm 2 mps 749 mmHg 83%
03:00 +16°C° 0 mm 2 mps 749 mmHg 86%
04:00 +16°C° 0 mm 2 mps 749 mmHg 89%
05:00 +16°C° 0 mm 2 mps 749 mmHg 92%
06:00 +18°C° 0 mm 2 mps 749 mmHg 86%
07:00 +20°C° 0 mm 2 mps 749 mmHg 80%
08:00 +21°C° 0 mm 3 mps 749 mmHg 74%
09:00 +24°C° 0 mm 3 mps 749 mmHg 68%
10:00 +25°C° 0 mm 3 mps 749 mmHg 63%
11:00 +27°C° 0 mm 3 mps 750 mmHg 57%
12:00 +27°C° 0.2 mm 4 mps 749 mmHg 56%
13:00 +27°C° 0.2 mm 4 mps 749 mmHg 55%
14:00 +27°C° 0.2 mm 4 mps 749 mmHg 54%
15:00 +27°C° 0 mm 4 mps 749 mmHg 54%
16:00 +26°C° 0 mm 4 mps 749 mmHg 55%
17:00 +26°C° 0 mm 4 mps 749 mmHg 56%
18:00 +23°C° 0 mm 4 mps 749 mmHg 62%
19:00 +21°C° 0 mm 4 mps 750 mmHg 68%
20:00 +19°C° 0 mm 3 mps 750 mmHg 74%
21:00 +18°C° 0 mm 3 mps 750 mmHg 75%
22:00 +17°C° 0 mm 3 mps 750 mmHg 76%
23:00 +16°C° 0 mm 3 mps 750 mmHg 77%
Show more